This demonstration page uses our WeatherBlox Daily Observations layout. Learn more.

40.92945, -100.16068

Hourly Observations for March 6, 2018

Temp ( °F °C ) Dew Point ( °F °C ) Humidity (%) Winds ( mph kmh ) Pressure ( in mb ) Visibility ( mi km ) Precip ( " mm )
12:15 am 00:15 Clear 36 2.3 16 -8.7 44 44 WNW 31 50 29.97 1015 10 16.0934 0 0
12:35 am 00:35 Clear 36 2 16 -8.9 45 45 WNW 32 52 29.97 1015 10 16.0934 0 0
12:55 am 00:55 Clear 36 2 16 -9.1 44 44 WNW 35 56 29.97 1015 10 16.0934 0 0
1:15 am 01:15 Clear 35 1.9 17 -8.5 46 46 WNW 33 54 29.97 1015 10 16.0934 0 0
1:35 am 01:35 Mostly Cloudy 36 2.1 15 -9.4 43 43 WNW 33 54 29.97 1015 10 16.0934 0 0
1:55 am 01:55 Cloudy 36 2 16 -8.7 45 45 WNW 37 59 29.97 1015 10 16.0934 0 0
2:15 am 02:15 Cloudy 36 2 16 -8.7 45 45 WNW 35 56 29.97 1015 10 16.0934 0 0
2:35 am 02:35 Mostly Cloudy 36 2 16 -9.1 44 44 WNW 33 54 29.97 1015 10 16.0934 0 0
2:55 am 02:55 Mostly Cloudy 36 2 15 -9.6 42 42 WNW 33 54 29.97 1015 10 16.0934 0 0
3:15 am 03:15 Cloudy 36 2 14 -9.9 41 41 WNW 32 52 29.94 1014 10 16.0934 0 0
3:35 am 03:35 Cloudy 36 2 14 -10 41 41 WNW 30 48 29.94 1014 10 16.0934 0 0
3:55 am 03:55 Cloudy 36 2 12 -10.9 38 38 WNW 39 63 29.97 1015 10 16.0934 0 0
4:15 am 04:15 Cloudy 36 2 13 -10.8 38 38 WNW 30 48 29.97 1015 10 16.0934 0 0
4:35 am 04:35 Cloudy 36 2 12 -11.1 38 38 WNW 35 56 29.97 1015 10 16.0934 0 0
4:55 am 04:55 Cloudy 35 1.8 12 -11.2 38 38 WNW 38 61 29.97 1015 10 16.0934 0 0
5:15 am 05:15 Partly Cloudy 35 1.8 12 -11.1 38 38 NW 35 56 29.97 1015 10 16.0934 0 0
5:35 am 05:35 Mostly Cloudy 35 1.8 12 -11.1 38 38 NW 35 56 30 1016 10 16.0934 0 0
5:55 am 05:55 Cloudy 35 1.8 12 -11 38 38 NW 32 52 30 1016 10 16.0934 0 0
6:15 am 06:15 Cloudy 35 1.6 13 -10.6 40 40 NW 32 52 30 1016 10 16.0934 0 0
6:35 am 06:35 Cloudy 35 1.6 13 -10.5 41 41 NW 37 59 30 1016 10 16.0934 0 0
6:55 am 06:55 Cloudy 35 1.5 13 -10.4 41 41 NW 37 59 30 1016 10 16.0934 0 0
7:15 am 07:15 Cloudy 34 1 15 -9.6 45 45 NNW 37 59 30.03 1017 10 16.0934 0 0
7:35 am 07:35 Cloudy 33 0.6 17 -8.6 51 51 NNW 35 56 30.03 1017 10 16.0934 0 0
7:55 am 07:55 Cloudy 32 0.1 19 -7.4 57 57 NNW 33 54 30.09 1019 10 16.0934 0 0
8:15 am 08:15 Windy with Snow Likely 31 -0.4 22 -5.8 67 67 NW 36 57 30.09 1019 4 6.43736 0 0
8:35 am 08:35 Windy with Snow Likely 31 -0.5 23 -5.2 71 71 NNW 30 48 30.12 1020 4 6.43736 0 0
8:55 am 08:55 Cloudy with Haze 31 -0.5 23 -5.1 71 71 NW 35 56 30.12 1020 5 8.0467 0 0
9:15 am 09:15 Windy with Snow Likely 31 -0.5 23 -5.2 71 71 NW 32 52 30.12 1020 5 8.0467 0 0
9:35 am 09:35 Windy with Snow Likely 31 -0.5 23 -4.8 73 73 NNW 28 44 30.15 1021 3 4.82802 0 0
9:55 am 09:55 Cloudy 32 0 19 -7 60 60 NNW 36 57 30.15 1021 10 16.0934 0 0
10:15 am 10:15 Cloudy 32 0 19 -7 60 60 NNW 33 54 30.15 1021 10 16.0934 0 0
10:35 am 10:35 Cloudy 32 -0.2 20 -6.5 63 63 NNW 35 56 30.15 1021 10 16.0934 0 0
10:55 am 10:55 Windy with Snow Likely 31 -0.4 22 -5.7 68 68 NNW 32 52 30.18 1022 5 8.0467 0 0
11:15 am 11:15 Cloudy 31 -0.3 21 -6.1 65 65 NNW 36 57 30.18 1022 7 11.26538 0 0
11:35 am 11:35 Windy with Snow Likely 31 -0.6 22 -5.5 70 70 NNW 23 37 30.18 1022 10 16.0934 0 0
11:55 am 11:55 Windy with Snow Likely 30 -1 21 -6.1 69 69 NNW 31 50 30.21 1023 7 11.26538 0 0
12:15 pm 12:15 Cloudy 31 -0.8 19 -7 63 63 NNW 29 46 30.21 1023 10 16.0934 0 0
12:35 pm 12:35 Cloudy 31 -0.5 20 -6.9 62 62 NNW 26 43 30.21 1023 10 16.0934 0 0
12:55 pm 12:55 Cloudy 31 -0.3 20 -6.9 61 61 NNW 26 43 30.21 1023 10 16.0934 0 0
1:15 pm 13:15 Cloudy 32 -0.1 20 -6.8 61 61 NNW 31 50 30.24 1024 10 16.0934 0 0
1:35 pm 13:35 Cloudy 32 0 19 -7.2 59 59 NNW 32 52 30.24 1024 10 16.0934 0 0
1:55 pm 13:55 Cloudy 33 0.4 19 -7 58 58 NNW 30 48 30.24 1024 10 16.0934 0 0
2:15 pm 14:15 Cloudy 34 0.9 20 -6.9 56 56 NNW 30 48 30.24 1024 10 16.0934 0 0
2:35 pm 14:35 Cloudy 33 0.8 19 -7.1 56 56 NNW 29 46 30.24 1024 10 16.0934 0 0
2:55 pm 14:55 Cloudy 34 1.3 19 -7 54 54 NNW 29 46 30.24 1024 10 16.0934 0 0
3:15 pm 15:15 Cloudy 35 1.8 20 -6.8 53 53 NNW 28 44 30.27 1025 10 16.0934 0 0
3:35 pm 15:35 Cloudy 35 1.5 20 -6.9 54 54 N 29 46 30.27 1025 10 16.0934 0 0
3:55 pm 15:55 Cloudy 34 1.2 20 -6.6 56 56 N 24 39 30.27 1025 10 16.0934 0 0
4:15 pm 16:15 Mostly Cloudy 35 1.4 20 -6.6 56 56 N 26 43 30.27 1025 10 16.0934 0 0
4:35 pm 16:35 Cloudy 34 1.1 20 -6.4 58 58 N 24 39 30.27 1025 10 16.0934 0 0
4:55 pm 16:55 Cloudy 34 1 20 -6.6 57 57 N 25 41 30.3 1026 10 16.0934 0 0
5:15 pm 17:15 Cloudy 34 0.9 20 -6.5 58 58 N 21 33 30.3 1026 10 16.0934 0 0
5:35 pm 17:35 Cloudy 33 0.5 20 -6.5 60 60 N 21 33 30.3 1026 10 16.0934 0 0
5:55 pm 17:55 Cloudy 32 0.2 21 -6.3 62 62 N 20 31 30.3 1026 10 16.0934 0 0
6:15 pm 18:15 Cloudy 32 0 20 -6.4 62 62 NNW 17 28 30.33 1027 10 16.0934 0 0
6:35 pm 18:35 Cloudy 32 -0.1 20 -6.5 62 62 NNW 23 37 30.33 1027 10 16.0934 0 0
6:55 pm 18:55 Cloudy 31 -0.5 20 -6.4 65 65 NNW 14 22 30.36 1028 10 16.0934 0 0
7:15 pm 19:15 Mostly Cloudy 30 -1 21 -6.2 68 68 NNW 13 20 30.36 1028 10 16.0934 0 0
7:35 pm 19:35 Partly Cloudy 30 -1.1 21 -6.2 69 69 NNW 16 26 30.36 1028 10 16.0934 0 0
7:55 pm 19:55 Clear 29 -1.6 21 -6.2 71 71 NNW 10 17 30.36 1028 10 16.0934 0 0
8:15 pm 20:15 Clear 29 -1.8 21 -6.1 73 73 NNW 12 19 30.36 1028 10 16.0934 0 0
8:35 pm 20:35 Clear 28 -2.3 21 -6.3 74 74 NNW 9 15 30.36 1028 10 16.0934 0 0
8:55 pm 20:55 Clear 28 -2.5 21 -6.2 76 76 NNW 10 17 30.39 1029 10 16.0934 0 0
9:15 pm 21:15 Clear 28 -2.4 21 -6.2 75 75 NNW 10 17 30.39 1029 10 16.0934 0 0
9:35 pm 21:35 Clear 27 -2.6 21 -6.2 77 77 N 9 15 30.36 1028 10 16.0934 0 0
9:55 pm 21:55 Clear 27 -2.8 20 -6.5 76 76 NW 9 15 30.39 1029 10 16.0934 0 0
10:15 pm 22:15 Clear 25 -3.7 20 -6.6 81 81 NW 8 13 30.42 1030 10 16.0934 0 0
10:35 pm 22:35 Clear 25 -4 20 -6.6 82 82 NW 8 13 30.42 1030 10 16.0934 0 0
10:55 pm 22:55 Clear 24 -4.5 19 -7 83 83 NW 7 11 30.42 1030 10 16.0934 0 0
11:15 pm 23:15 Clear 24 -4.2 20 -6.8 82 82 NW 8 13 30.42 1030 10 16.0934 0 0
11:35 pm 23:35 Clear 25 -4 19 -7 80 80 NNW 8 13 30.42 1030 10 16.0934 0 0
11:55 pm 23:55 Clear 25 -3.8 19 -7.1 78 78 N 7 11 30.39 1029 10 16.0934 0 0

Powered by AerisWeather